Date String (YYYY-MM-DD hh:mm:ss) UTC,Instrument flags,Ambient pressure (hPa),Sample flow (lpm),Bypass flow (lpm),Sample temperature (°C),Ambient temperature (°C),ASC tube jacket temperature (°C),LED temperature (°C),Box temperature (°C),Sample RH (%),Span deviation,Mass concentration (μg/m³),Mass concentration (μg/m³),Mass concentration (μg/m³)
DateTimeUTC,F1_M11,P_M11,Q1_M11,Q2_M11,T1_M11,T2_M11,T3_M11,T4_M11,T5_M11,U1_M11,ZSPAN_M11,X0_M11,X2_M11,X1_M11
2022-01-02 10:00:00,,0824.0,5.00,0.00,22.5,22.6,00.0,31.4,24.2,04.0,0000.0,0000.20,0000.05,0000.01
2022-01-02 10:01:00,,0824.0,5.00,0.00,22.4,22.3,00.0,31.4,24.1,03.9,0000.0,0000.20,0000.05,0000.01
2022-01-02 10:02:00,,0824.0,4.99,0.00,22.4,22.0,00.0,31.4,23.9,03.8,0000.0,0000.16,0000.05,0000.01
2022-01-02 10:03:00,,0824.0,5.01,0.00,22.3,21.9,00.0,31.4,23.9,03.6,0000.0,0000.10,0000.04,0000.01
2022-01-02 10:04:00,,0823.9,4.99,0.00,22.3,21.8,00.0,31.4,23.9,04.1,0000.0,0000.10,0000.05,0000.01
2022-01-02 10:05:00,,0824.0,5.01,0.00,22.2,21.7,00.0,31.3,23.8,04.3,0000.0,0000.08,0000.03,0000.01
2022-01-02 10:06:00,,0824.0,4.99,0.00,22.2,21.5,00.0,31.3,23.7,04.7,0000.0,0000.10,0000.04,0000.02
2022-01-02 10:07:00,,0824.0,5.01,0.00,22.1,21.5,00.0,31.3,23.6,05.1,0000.0,0000.11,0000.04,0000.02
2022-01-02 10:08:00,,0824.0,4.99,0.00,22.2,22.1,00.0,31.3,23.8,04.7,0000.0,0000.11,0000.04,0000.02
2022-01-02 10:09:00,,0823.9,5.01,0.00,22.3,22.9,00.0,31.3,24.1,04.2,0000.0,0000.72,0000.06,0000.02
2022-01-02 10:10:00,,0824.0,4.99,0.00,22.5,23.2,00.0,31.4,24.3,04.1,0000.0,0001.15,0000.06,0000.02
2022-01-02 10:11:00,,0823.9,5.00,0.00,22.5,22.9,00.0,31.4,24.3,04.5,0000.0,0001.15,0000.06,0000.02
2022-01-02 10:12:00,,0823.9,5.01,0.00,22.5,22.6,00.0,31.4,24.2,04.9,0000.0,0001.14,0000.06,0000.02
2022-01-02 10:13:00,,0823.8,4.99,0.00,22.4,22.3,00.0,31.4,24.1,04.7,0000.0,0001.14,0000.06,0000.02
2022-01-02 10:14:00,,0823.8,5.01,0.00,22.4,22.1,00.0,31.4,24.0,04.7,0000.0,0001.14,0000.06,0000.02
2022-01-02 10:15:00,,0823.8,5.00,0.00,22.3,21.9,00.0,31.4,23.9,04.7,0000.0,0001.16,0000.07,0000.01
2022-01-02 10:16:00,,0823.8,4.99,0.00,22.3,21.8,00.0,31.3,23.9,04.8,0000.0,0001.17,0000.07,0000.01
2022-01-02 10:17:00,,0824.0,5.00,0.00,22.3,21.7,00.0,31.3,23.9,05.0,0000.0,0001.14,0000.06,0000.01
2022-01-02 10:18:00,,0824.0,4.99,0.00,22.2,21.7,00.0,31.3,23.8,05.1,0000.0,0001.15,0000.06,0000.01
2022-01-02 10:19:00,,0824.0,5.00,0.00,22.2,21.9,00.0,31.3,23.9,04.7,0000.0,0001.17,0000.07,0000.01
2022-01-02 10:20:00,,0824.0,5.00,0.00,22.4,22.6,00.0,31.3,24.1,04.7,0000.0,0000.44,0000.05,0000.01
2022-01-02 10:21:00,,0824.0,5.01,0.00,22.5,23.4,00.0,31.4,24.4,05.0,0000.0,0000.15,0000.06,0000.01
2022-01-02 10:22:00,,0824.0,4.99,0.00,22.6,23.3,00.0,31.4,24.5,05.4,0000.0,0000.21,0000.07,0000.01
2022-01-02 10:23:00,,0824.0,5.01,0.00,22.6,23.0,00.0,31.4,24.4,05.3,0000.0,0000.22,0000.07,0000.01
2022-01-02 10:24:00,,0824.0,5.00,0.00,22.6,22.7,00.0,31.4,24.3,05.3,0000.0,0000.26,0000.08,0000.01
2022-01-02 10:25:00,,0824.0,5.00,0.00,22.6,22.5,00.0,31.4,24.2,05.4,0000.0,0000.27,0000.09,0000.01
2022-01-02 10:26:00,,0823.9,5.00,0.00,22.5,22.3,00.0,31.4,24.2,05.5,0000.0,0000.27,0000.09,0000.01
2022-01-02 10:27:00,,0823.9,5.00,0.00,22.5,22.1,00.0,31.4,24.1,05.6,0000.0,0000.25,0000.08,0000.01
2022-01-02 10:28:00,,0823.9,4.99,0.00,22.4,22.0,00.0,31.4,24.1,05.4,0000.0,0000.25,0000.08,0000.01
2022-01-02 10:29:00,,0823.9,5.00,0.00,22.4,21.8,00.0,31.4,24.0,05.4,0000.0,0000.20,0000.06,0000.01
2022-01-02 10:30:00,,0824.0,5.01,0.00,22.4,21.8,00.0,31.4,23.9,05.4,0000.0,0001.25,0000.05,0000.01
2022-01-02 10:31:00,,0824.0,5.00,0.00,22.3,21.9,00.0,31.4,24.0,05.2,0000.0,0001.40,0000.05,0000.01
2022-01-02 10:32:00,,0824.0,4.99,0.00,22.4,22.5,00.0,31.4,24.2,05.1,0000.0,0001.37,0000.05,0000.01
2022-01-02 10:33:00,,0824.0,5.01,0.00,22.6,23.2,00.0,31.5,24.5,05.1,0000.0,0001.47,0000.06,0000.01
2022-01-02 10:34:00,,0824.0,4.99,0.00,22.7,23.4,00.0,31.5,24.6,05.1,0000.0,0002.61,0000.08,0000.01
2022-01-02 10:35:00,,0824.0,5.00,0.00,22.7,23.1,00.0,31.5,24.6,04.8,0000.0,0002.61,0000.08,0000.01
2022-01-02 10:36:00,,0824.0,5.01,0.00,22.7,22.8,00.0,31.5,24.5,04.5,0000.0,0002.62,0000.09,0000.01
2022-01-02 10:37:00,,0823.9,5.01,0.00,22.7,22.6,00.0,31.5,24.4,04.2,0000.0,0003.01,0000.08,0000.01
2022-01-02 10:38:00,,0824.0,4.99,0.00,22.6,22.4,00.0,31.5,24.3,04.3,0000.0,0004.23,0000.08,0000.01
2022-01-02 10:39:00,,0824.0,5.00,0.00,22.6,22.2,00.0,31.5,24.2,04.5,0000.0,0004.23,0000.08,0000.01
2022-01-02 10:40:00,,0824.1,5.00,0.00,22.5,22.1,00.0,31.5,24.1,04.6,0000.0,0004.23,0000.08,0000.01
2022-01-02 10:41:00,,0824.1,5.00,0.00,22.5,21.9,00.0,31.5,24.1,04.6,0000.0,0003.11,0000.08,0000.01
2022-01-02 10:42:00,,0824.1,5.00,0.00,22.4,21.8,00.0,31.5,24.0,04.6,0000.0,0003.05,0000.08,0000.01
2022-01-02 10:43:00,,0824.1,4.98,0.00,22.4,21.7,00.0,31.5,23.9,04.6,0000.0,0003.16,0000.09,0000.01
2022-01-02 10:44:00,,0824.1,5.01,0.00,22.4,21.9,00.0,31.5,24.0,04.6,0000.0,0003.11,0000.07,0000.01
2022-01-02 10:45:00,,0824.1,5.01,0.00,22.5,22.6,00.0,31.5,24.2,04.3,0000.0,0001.94,0000.05,0000.01
2022-01-02 10:46:00,,0824.2,4.99,0.00,22.6,23.2,00.0,31.5,24.5,04.3,0000.0,0001.96,0000.06,0000.01
2022-01-02 10:47:00,,0824.2,5.01,0.00,22.7,23.3,00.0,31.5,24.6,04.4,0000.0,0002.06,0000.06,0000.01
2022-01-02 10:48:00,,0824.2,5.00,0.00,22.7,23.0,00.0,31.6,24.5,04.5,0000.0,0001.98,0000.07,0000.01
2022-01-02 10:49:00,,0824.2,5.00,0.00,22.7,22.7,00.0,31.6,24.4,04.6,0000.0,0000.55,0000.08,0000.01
2022-01-02 10:50:00,,0824.2,5.00,0.00,22.6,22.5,00.0,31.6,24.3,04.6,0000.0,0000.55,0000.08,0000.01
2022-01-02 10:51:00,,0824.2,5.01,0.00,22.6,22.3,00.0,31.6,24.2,04.4,0000.0,0001.50,0000.09,0000.01
2022-01-02 10:52:00,,0824.2,4.99,0.00,22.6,22.1,00.0,31.5,24.2,04.6,0000.0,0001.80,0000.09,0000.01
2022-01-02 10:53:00,,0824.2,5.01,0.00,22.5,22.0,00.0,31.5,24.1,04.4,0000.0,0001.79,0000.09,0000.01
2022-01-02 10:54:00,,0824.3,4.99,0.00,22.4,21.9,00.0,31.5,24.0,04.3,0000.0,0001.74,0000.09,0000.01
2022-01-02 10:55:00,,0824.3,5.00,0.00,22.4,21.9,00.0,31.5,24.0,04.3,0000.0,0001.74,0000.09,0000.01
2022-01-02 10:56:00,,0824.4,5.00,0.00,22.5,22.5,00.0,31.5,24.2,04.4,0000.0,0001.74,0000.09,0000.01
2022-01-02 10:57:00,,0824.4,5.00,0.00,22.6,23.2,00.0,31.5,24.4,04.6,0000.0,0002.26,0000.07,0000.01
2022-01-02 10:58:00,,0824.5,5.00,0.00,22.7,23.4,00.0,31.6,24.6,04.6,0000.0,0002.41,0000.06,0000.01
2022-01-02 10:59:00,,0824.5,5.00,0.00,22.7,23.1,00.0,31.6,24.6,04.7,0000.0,0002.32,0000.05,0000.01
